Corning, AR

12:04 PM CST on February 11, 2016 (GMT -0600)
Corning

Weather History for K4M9 - May, 2013

Change the Weather History Date:

Wednesday, May 22, 2013

  Actual Average (KARG) Record (KARG)
Temperature  
Mean Temperature 70 °F -  
Max Temperature 78 °F 77 °F - (-1)
Min Temperature 62 °F 59 °F - (-1)
Cooling Degree Days 5    
Growing Degree Days 20 (Base 50)    
Moisture  
Dew Point 63 °F    
Average Humidity 82    
Maximum Humidity 100    
Minimum Humidity 57    
Precipitation  
Precipitation 0.00 in - - ()
Sea Level Pressure  
Sea Level Pressure 29.83 in    
Wind  
Wind Speed 10 mph (SW)    
Max Wind Speed 17 mph    
Max Gust Speed 24 mph    
Visibility 10 miles    
Events Rain    
Averages and records for this station are not official NWS values.
T = Trace of Precipitation, MM = Missing Value Source: NWS Daily Summary

Daily Weather History Graph

Daily Weather History Graph

Search for Another Location

Airport or City:

Trip Planner

Search our weather history database for the weather conditions in past years. The results will help you decide how hot, cold, wet, or windy it might be!

Date:

Astronomy

May. 22, 2013 Rise Set
Actual Time 5:50 AM CDT 8:08 PM CDT
Civil Twilight 5:21 AM CDT 8:37 PM CDT
Nautical Twilight 4:45 AM CDT 9:13 PM CDT
Astronomical Twilight 4:06 AM CDT 9:52 PM CDT
Moon 5:34 PM CDT (5/22) 3:50 AM CDT (5/22)
Length of Visible Light 15h 16m
Length of Day
14h 17m
Waxing Gibbous, 91% of the Moon is Illuminated
May 22
Waxing Gibbous
May 24
Full
May 31
Last Quarter
Jun 8
New
Jun 16
First Quarter

Hourly Weather History & Observations

Time (CDT) Temp. Dew Point Humidity Pressure Visibility Wind Dir Wind Speed Gust Speed Precip Events Conditions
12:15 AM 64.4 °F 62.6 °F 94% 29.79 in 10.0 mi South 6.9 mph - N/A   Clear
12:35 AM 64.4 °F 62.6 °F 94% 29.82 in 10.0 mi WNW 10.4 mph - N/A   Scattered Clouds
12:55 AM 64.4 °F 62.6 °F 94% 29.82 in 10.0 mi WNW 8.1 mph - N/A   Scattered Clouds
1:15 AM 64.4 °F 64.4 °F 100% 29.81 in 10.0 mi West 4.6 mph - N/A   Partly Cloudy
1:35 AM 62.6 °F 62.6 °F 100% 29.80 in 10.0 mi SW 4.6 mph - N/A   Clear
1:55 AM 62.6 °F 62.6 °F 100% 29.79 in 10.0 mi South 5.8 mph - N/A   Clear
2:15 AM 62.6 °F 62.6 °F 100% 29.79 in 10.0 mi South 6.9 mph - N/A   Partly Cloudy
2:35 AM 62.6 °F 62.6 °F 100% 29.79 in 10.0 mi South 9.2 mph - N/A   Mostly Cloudy
2:55 AM 62.6 °F 62.6 °F 100% 29.78 in 10.0 mi SSW 6.9 mph - N/A   Mostly Cloudy
3:15 AM 64.4 °F 62.6 °F 94% 29.78 in 10.0 mi SSW 10.4 mph - N/A   Mostly Cloudy
3:35 AM 64.4 °F 62.6 °F 94% 29.78 in 10.0 mi South 9.2 mph - N/A   Mostly Cloudy
3:55 AM 64.4 °F 62.6 °F 94% 29.78 in 10.0 mi South 11.5 mph - N/A   Overcast
4:15 AM 64.4 °F 62.6 °F 94% 29.78 in 10.0 mi South 12.7 mph - N/A   Mostly Cloudy
4:35 AM 64.4 °F 62.6 °F 94% 29.78 in 10.0 mi SSW 10.4 mph - N/A   Scattered Clouds
4:55 AM 64.4 °F 62.6 °F 94% 29.79 in 10.0 mi SSW 13.8 mph - N/A   Mostly Cloudy
5:15 AM 64.4 °F 62.6 °F 94% 29.80 in 10.0 mi SSW 11.5 mph - N/A   Overcast
5:35 AM 64.4 °F 64.4 °F 100% 29.80 in 10.0 mi SW 10.4 mph - N/A   Scattered Clouds
5:55 AM 64.4 °F 64.4 °F 100% 29.81 in 10.0 mi WSW 8.1 mph - N/A   Partly Cloudy
6:15 AM 64.4 °F 64.4 °F 100% 29.82 in 10.0 mi SW 10.4 mph - N/A   Scattered Clouds
6:35 AM 64.4 °F 64.4 °F 100% 29.82 in 10.0 mi SSW 10.4 mph - N/A   Partly Cloudy
6:55 AM 64.4 °F 64.4 °F 100% 29.82 in 10.0 mi SSW 11.5 mph - N/A   Partly Cloudy
7:15 AM 64.4 °F 64.4 °F 100% 29.82 in 10.0 mi SW 10.4 mph - N/A   Clear
7:35 AM 66.2 °F 64.4 °F 94% 29.82 in 10.0 mi SW 12.7 mph 18.4 mph N/A   Clear
7:55 AM 66.2 °F 64.4 °F 94% 29.83 in 10.0 mi SW 15.0 mph - N/A   Clear
8:15 AM 66.2 °F 64.4 °F 94% 29.84 in 10.0 mi SW 13.8 mph 17.3 mph N/A   Clear
8:35 AM 68.0 °F 62.6 °F 83% 29.84 in 10.0 mi WSW 16.1 mph 19.6 mph N/A   Clear
8:55 AM 68.0 °F 60.8 °F 78% 29.84 in 10.0 mi WSW 13.8 mph - N/A   Clear
9:15 AM 68.0 °F 62.6 °F 83% 29.85 in 10.0 mi SW 15.0 mph - N/A   Clear
9:35 AM 69.8 °F 60.8 °F 73% 29.85 in 10.0 mi WSW 15.0 mph 19.6 mph N/A   Clear
9:55 AM 69.8 °F 62.6 °F 78% 29.85 in 10.0 mi SW 12.7 mph 19.6 mph N/A   Clear
10:15 AM 71.6 °F 62.6 °F 73% 29.85 in 10.0 mi SW 13.8 mph - N/A   Clear
10:35 AM 71.6 °F 62.6 °F 73% 29.85 in 10.0 mi SW 12.7 mph - N/A   Clear
10:55 AM 73.4 °F 62.6 °F 69% 29.86 in 10.0 mi SW 15.0 mph - N/A   Clear
11:15 AM 73.4 °F 62.6 °F 69% 29.86 in 10.0 mi SW 13.8 mph 18.4 mph N/A   Clear
11:35 AM 73.4 °F 62.6 °F 69% 29.86 in 10.0 mi SW 16.1 mph 19.6 mph N/A   Clear
11:55 AM 75.2 °F 62.6 °F 65% 29.85 in 10.0 mi WSW 12.7 mph 16.1 mph N/A   Unknown
12:15 PM 75.2 °F 62.6 °F 65% 29.85 in 10.0 mi WSW 11.5 mph - N/A   Unknown
12:35 PM 75.2 °F 60.8 °F 61% 29.84 in 10.0 mi SW 12.7 mph 18.4 mph N/A   Unknown
12:55 PM 75.2 °F 62.6 °F 65% 29.85 in 10.0 mi SW 12.7 mph - N/A   Unknown
1:15 PM 75.2 °F 62.6 °F 65% 29.85 in 10.0 mi SW 11.5 mph 21.9 mph N/A   Unknown
1:35 PM 77.0 °F 64.4 °F 65% 29.84 in 10.0 mi SW 12.7 mph 20.7 mph N/A   Unknown
1:55 PM 75.2 °F 62.6 °F 65% 29.84 in 10.0 mi SSW 9.2 mph - N/A   Unknown
2:15 PM 75.2 °F 62.6 °F 65% 29.85 in 10.0 mi SSW 17.3 mph - N/A   Unknown
2:35 PM 75.2 °F 62.6 °F 65% 29.85 in 10.0 mi SSW 15.0 mph 20.7 mph N/A   Unknown
2:55 PM 75.2 °F 62.6 °F 65% 29.84 in 10.0 mi SSW 15.0 mph - N/A Rain Light Rain
3:15 PM 75.2 °F 62.6 °F 65% 29.83 in 10.0 mi SSW 15.0 mph 20.7 mph N/A   Clear
3:35 PM 77.0 °F 62.6 °F 61% 29.83 in 10.0 mi SW 11.5 mph 20.7 mph N/A   Clear
3:55 PM 77.0 °F 62.6 °F 61% 29.82 in 10.0 mi SSW 15.0 mph 19.6 mph N/A   Clear
4:15 PM 77.0 °F 62.6 °F 61% 29.82 in 10.0 mi SSW 13.8 mph - N/A   Clear
4:35 PM 78.8 °F 62.6 °F 57% 29.82 in 10.0 mi SW 17.3 mph - N/A   Clear
4:55 PM 77.0 °F 62.6 °F 61% 29.82 in 10.0 mi SSW 13.8 mph - N/A   Clear
5:15 PM 77.0 °F 62.6 °F 61% 29.82 in 10.0 mi SW 16.1 mph - N/A   Clear
5:35 PM 77.0 °F 62.6 °F 61% 29.82 in 10.0 mi SSW 11.5 mph 18.4 mph N/A   Clear
5:55 PM 77.0 °F 62.6 °F 61% 29.82 in 10.0 mi SW 11.5 mph - N/A   Clear
6:15 PM 75.2 °F 62.6 °F 65% 29.82 in 10.0 mi SW 13.8 mph 17.3 mph N/A   Clear
6:35 PM 75.2 °F 62.6 °F 65% 29.83 in 10.0 mi SW 16.1 mph 24.2 mph N/A   Clear
6:55 PM 69.8 °F 66.2 °F 88% 29.83 in 3.0 mi SW 10.4 mph - N/A Rain Light Rain
7:15 PM 71.6 °F 66.2 °F 83% 29.83 in 10.0 mi SW 6.9 mph - N/A   Clear
7:35 PM 71.6 °F 66.2 °F 83% 29.83 in 10.0 mi SW 5.8 mph - N/A   Clear
7:55 PM 69.8 °F 68.0 °F 94% 29.83 in 10.0 mi SSW 6.9 mph - N/A   Clear
8:15 PM 69.8 °F 66.2 °F 88% 29.83 in 10.0 mi SW 6.9 mph - N/A   Clear
8:35 PM 69.8 °F 66.2 °F 88% 29.84 in 10.0 mi SW 8.1 mph - N/A   Clear
8:55 PM 68.0 °F 66.2 °F 94% 29.85 in 10.0 mi SW 8.1 mph - N/A   Clear
9:15 PM 68.0 °F 64.4 °F 88% 29.86 in 10.0 mi WSW 8.1 mph - N/A   Clear
9:35 PM 68.0 °F 64.4 °F 88% 29.86 in 10.0 mi WSW 9.2 mph - N/A   Clear
9:55 PM 68.0 °F 64.4 °F 88% 29.87 in 10.0 mi WSW 9.2 mph - N/A   Clear
10:15 PM 68.0 °F 64.4 °F 88% 29.88 in 10.0 mi WSW 8.1 mph - N/A   Clear
10:35 PM 68.0 °F 64.4 °F 88% 29.89 in 10.0 mi West 9.2 mph - N/A   Clear
10:55 PM 68.0 °F 64.4 °F 88% 29.90 in 10.0 mi West 6.9 mph - N/A   Clear
11:15 PM 66.2 °F 62.6 °F 88% 29.90 in 10.0 mi WNW 8.1 mph - N/A   Clear
11:35 PM 68.0 °F 59.0 °F 73% 29.91 in 10.0 mi NW 11.5 mph 17.3 mph N/A   Clear
11:55 PM 68.0 °F 59.0 °F 73% 29.92 in 10.0 mi NW 10.4 mph - N/A   Clear